New Roads False River Regiona, LA

3:46 AM CDT on September 15, 2019 (GMT -0500)
False River

Weather History for KHZR - May, 2019

Change the Weather History Date:

Sunday, May 26, 2019

  Actual Average (KBTR) Record (KBTR)
Temperature  
Mean Temperature 78 °F 78 °F  
Max Temperature 89 °F 88 °F 98 °F (1921)
Min Temperature 68 °F 68 °F 47 °F (1979)
Degree Days  
Heating Degree Days 0 0  
Month to date heating degree days 0  
Since 1 July heating degree days 1553  
Cooling Degree Days 14 13  
Month to date cooling degree days 266  
Year to date cooling degree days 497  
Growing Degree Days 28 (Base 50)    
Moisture  
Dew Point 70 °F    
Average Humidity 75    
Maximum Humidity 100    
Minimum Humidity 49    
Precipitation  
Precipitation 0.00 in 0.17 in 2.26 in (1919)
Month to date precipitation 4.05  
Year to date precipitation 23.68  
Snow  
Snow - - - ()
Month to date snowfall  
Since 1 July snowfall  
Snow Depth -    
Sea Level Pressure  
Sea Level Pressure 30.10 in    
Wind  
Wind Speed 2 mph ()    
Max Wind Speed 10 mph    
Max Gust Speed -    
T = Trace of Precipitation, MM = Missing Value Source: Averaged Metar Reports

Daily Weather History Graph

Daily Weather History Graph

Search for Another Location

Airport or City:

Astronomy

May. 26, 2019 Rise Set
Actual Time 6:05 AM CDT 8:00 PM CDT
Civil Twilight 5:38 AM CDT 8:27 PM CDT
Nautical Twilight 5:05 AM CDT 9:00 PM CDT
Astronomical Twilight 4:31 AM CDT 9:35 PM CDT
Moon 1:41 AM CDT (5/26) 12:53 PM CDT (5/26)
Length of Visible Light 14h 49m
Length of Day
13h 55m
Waning Gibbous, 50% of the Moon is Illuminated
May 26
Waning Gibbous
Jun 3
New
Jun 10
First Quarter
Jun 17
Full
Jun 25
Last Quarter

Hourly Weather History & Observations

Time (CDT) Temp. Heat Index Dew Point Humidity Pressure Visibility Wind Dir Wind Speed Gust Speed Precip Events Conditions
12:36 AM 75.2 °F - 71.6 °F 89% 30.11 in - Calm Calm - N/A   Unknown
12:56 AM 75.2 °F - 71.6 °F 89% 30.11 in - South 3.5 mph - N/A   Unknown
1:35 AM 73.4 °F - 71.6 °F 94% 30.10 in - SSE 3.5 mph - N/A   Unknown
2:14 AM 73.4 °F - 71.6 °F 94% - - SSE 3.5 mph - N/A   Unknown
2:36 AM 73.4 °F - 71.6 °F 94% 30.10 in - SSE 5.8 mph - N/A   Unknown
3:34 AM 71.6 °F - 71.6 °F 100% 30.10 in - Calm Calm - N/A   Unknown
3:56 AM 71.6 °F - 71.6 °F 100% 30.09 in - Calm Calm - N/A   Unknown
4:15 AM 69.8 °F - 69.8 °F 100% 30.10 in - Calm Calm - N/A   Unknown
4:36 AM 69.8 °F - 69.8 °F 100% 30.09 in - Calm Calm - N/A   Unknown
4:56 AM 69.8 °F - 69.8 °F 100% 30.10 in - Calm Calm - N/A   Unknown
5:16 AM 69.8 °F - 69.8 °F 100% 30.10 in - Calm Calm - N/A   Unknown
5:35 AM 68.0 °F - 68.0 °F 100% 30.10 in - North - - N/A   Unknown
5:55 AM 69.8 °F - 68.0 °F 94% 30.11 in - Calm Calm - N/A   Unknown
6:16 AM 69.8 °F - 69.8 °F 100% 30.12 in - Calm Calm - N/A   Unknown
6:36 AM 69.8 °F - 69.8 °F 100% 30.13 in - Calm Calm - N/A   Unknown
6:55 AM 71.6 °F - 71.6 °F 100% 30.13 in - Calm Calm - N/A   Unknown
7:16 AM 71.6 °F - 71.6 °F 100% 30.14 in - Calm Calm - N/A   Unknown
7:36 AM 73.4 °F - 73.4 °F 100% 30.15 in - Calm Calm - N/A   Unknown
8:16 AM 75.2 °F - 73.4 °F 94% 30.15 in - Calm Calm - N/A   Unknown
8:37 AM 77.0 °F - 73.4 °F 89% 30.15 in - Calm Calm - N/A   Unknown
8:57 AM 78.8 °F - 71.6 °F 78% 30.15 in - Calm Calm - N/A   Clear
9:16 AM 80.6 °F 84.6 °F 71.6 °F 74% 30.16 in - Calm Calm - N/A   Clear
9:34 AM 80.6 °F 84.6 °F 71.6 °F 74% 30.16 in - Calm Calm - N/A   Clear
9:56 AM 80.6 °F 84.6 °F 71.6 °F 74% 30.15 in - Calm Calm - N/A   Clear
11:36 AM 84.2 °F 87.3 °F 68.0 °F 58% 30.15 in - ESE 3.5 mph - N/A   Scattered Clouds
11:56 AM 84.2 °F 87.3 °F 68.0 °F 58% 30.14 in - SSW 4.6 mph - N/A   Scattered Clouds
12:16 PM 86.0 °F 89.4 °F 68.0 °F 55% 30.14 in - SSE 5.8 mph - N/A   Scattered Clouds
12:54 PM 87.8 °F 90.4 °F 66.2 °F 49% 30.14 in - ESE 4.6 mph - N/A   Scattered Clouds
1:16 PM 87.8 °F 90.4 °F 66.2 °F 49% 30.14 in - South 8.1 mph - N/A   Clear
1:36 PM 87.8 °F 91.4 °F 68.0 °F 52% 30.13 in - South 10.4 mph - N/A   Mostly Cloudy
1:55 PM 87.8 °F 91.4 °F 68.0 °F 52% 30.13 in - South 8.1 mph - N/A   Mostly Cloudy
2:15 PM 87.8 °F 92.6 °F 69.8 °F 55% 30.13 in - South 5.8 mph - N/A   Scattered Clouds
2:36 PM 87.8 °F 91.4 °F 68.0 °F 52% 30.12 in - South 5.8 mph - N/A   Scattered Clouds
3:15 PM 87.8 °F 91.4 °F 68.0 °F 52% 30.10 in - Calm Calm - N/A   Scattered Clouds
3:35 PM 89.6 °F 94.7 °F 69.8 °F 52% 30.10 in - SE 3.5 mph - N/A   Clear
3:56 PM 89.6 °F 94.7 °F 69.8 °F 52% 30.09 in - SSE 6.9 mph - N/A   Clear
4:56 PM 89.6 °F 94.7 °F 69.8 °F 52% 30.07 in - East 5.8 mph - N/A   Mostly Cloudy
5:36 PM 89.6 °F 94.7 °F 69.8 °F 52% 30.06 in - Calm Calm - N/A   Scattered Clouds
5:56 PM 89.6 °F 93.4 °F 68.0 °F 49% 30.05 in - SSE 5.8 mph - N/A   Scattered Clouds
6:15 PM 89.6 °F 94.7 °F 69.8 °F 52% 30.05 in - East 3.5 mph - N/A   Scattered Clouds
6:37 PM 87.8 °F 91.4 °F 68.0 °F 52% 30.05 in - East 5.8 mph - N/A   Mostly Cloudy
6:55 PM 87.8 °F 91.4 °F 68.0 °F 52% 30.05 in - East 3.5 mph - N/A   Mostly Cloudy
7:15 PM 87.8 °F 91.4 °F 68.0 °F 52% 30.05 in - Calm Calm - N/A   Scattered Clouds
7:36 PM 86.0 °F 90.4 °F 69.8 °F 58% 30.05 in - Calm Calm - N/A   Mostly Cloudy
7:55 PM 84.2 °F 88.4 °F 69.8 °F 62% 30.04 in - ESE 3.5 mph - N/A   Mostly Cloudy
8:35 PM 82.4 °F 87.2 °F 71.6 °F 70% 30.05 in - Calm Calm - N/A   Scattered Clouds
8:56 PM 78.8 °F - 73.4 °F 83% 30.05 in - East 3.5 mph - N/A   Scattered Clouds
9:17 PM 80.6 °F 85.4 °F 73.4 °F 79% 30.05 in - Calm Calm - N/A   Mostly Cloudy
9:37 PM 82.4 °F 87.2 °F 71.6 °F 70% 30.06 in - Calm Calm - N/A   Mostly Cloudy
9:55 PM 80.6 °F 84.6 °F 71.6 °F 74% 30.06 in - SSE 4.6 mph - N/A   Scattered Clouds
10:37 PM 80.6 °F 84.6 °F 71.6 °F 74% 30.07 in - Calm Calm - N/A   Clear
10:56 PM 80.6 °F 84.6 °F 71.6 °F 74% 30.07 in - South 4.6 mph - N/A   Clear
11:15 PM 78.8 °F - 71.6 °F 78% 30.07 in - South 3.5 mph - N/A   Clear
11:35 PM 78.8 °F - 71.6 °F 78% 30.06 in - South 4.6 mph - N/A   Clear